sat.trackr.live / text

‹ back to catalog

STARLINK-30560

NORAD 58038 · 2023-156L

PAYLOAD ACTIVE UNKNOWN

§ Identity

Operator
Country
US
Launch date
2023-10-09
Launch site
AFWTR
Launch vehicle
Mass (kg)
RCS (m²)

Purposes: comms

External: N2YO · Heavens-Above · Gunter

§ Orbital elements

Epoch: 2026-09-20T08:16:10.979328Z

Period
93.85 min
Inclination
53.1601°
Eccentricity
0.0000901
Mean motion
15.34389475 rev/d
Perigee alt
462.1 km
Apogee alt
463.4 km
Semi-major
6,840.9 km
B*
2.5462e-5
RAAN
250.3031°
Arg perigee
79.3793°
Mean anomaly
280.7311°
Rev number
16,612

§ Raw data

STARLINK-305601 58038U 23156L   26263.34457152  .00000484  00000+0  25462-4 0  99992 58038  53.1601 250.3031 0000901  79.3793 280.7311 15.34389475166121

JSON: /api/v1/satellites/58038 · /tle

For live sub-satellite position, see the globe view (requires WebGL).

§ Visibility from observer

Set your observer location to see the next 7 days of passes ≥ 10°. The values pass through the URL so the page stays shareable.

No JS? Fill the form by hand. The geolocation button needs JavaScript.